Regional Weather Roundup
Issued by NWS

Home | Current Version | Previous Version | Text Only | Print | Product List | Glossary On
Versions: 1 2 3 4 5 6 7 8 9 10 11 12 13 14 15 16 17 18 19 20 21 22 23 24 25 26 27 28 29 30 31 32 33 34 35 36 37 38 39 40 41 42 43 44 45 46 47 48 49 50
000
ASUS43 KLSX 221407
RWRMO

WEATHER SUMMARY FOR MISSOURI
NATIONAL WEATHER SERVICE SPRINGFIELD MO
900 AM CDT THU OCT 22 2020

NOTE: "FAIR" INDICATES FEW OR NO CLOUDS BELOW 12,000 FEET WITH NO
       SIGNIFICANT WEATHER AND/OR OBSTRUCTIONS TO VISIBILITY.
       CURRENT SKY AND/OR WEATHER CONDITIONS ARE NOT AVAILABLE FOR
       CHILLICOTHE AND FARMINGTON.

MOZ001>031-035>038-043-044-053-054-221500-
...NORTHERN AND WESTERN MISSOURI...

CITY           SKY/WX    TMP DP  RH WIND       PRES   REMARKS
KANSAS CTY INT MOSUNNY   64  63  96 S18G26    29.87S
KANSAS C DTWN  SUNNY     66  62  87 S12G22    29.87F
LEE`S SUMMIT   SUNNY     61  61 100 S14G22    29.90S
ST JOSEPH      MOSUNNY   63  60  90 S13       29.83F
CHILLICOTHE      N/A     57  57 100 SE6       29.90F
KIRKSVILLE     CLOUDY    57  57 100 S7        29.94S FOG

$$
MOZ066>068-077>081-088>096-101>105-221500-
...SOUTHWEST MISSOURI...

CITY           SKY/WX    TMP DP  RH WIND       PRES   REMARKS
SPRINGFIELD    SUNNY     68  64  87 S15       30.00R
JOPLIN         SUNNY     71  64  78 S15       29.97R
BRANSON        SUNNY     68  66  94 SE9       30.05S

$$
MOZ032>034-039>042-045>050-055>058-069>072-221500-
...CENTRAL MISSOURI...

CITY           SKY/WX    TMP DP  RH WIND       PRES   REMARKS
COLUMBIA       SUNNY     67  64  90 S12       30.00R
JEFFERSON CITY SUNNY     66  61  84 E7        30.00R
ROLLA          SUNNY     69  63  81 S14G23    30.04R
SEDALIA        SUNNY     68  63  84 S15       29.97S
WARRENSBURG    SUNNY     64 N/A N/A S12       29.93R
OSAGE BEACH      N/A     67  64  90 S8        30.02R

$$
MOZ051-052-059>065-221500-
...EAST CENTRAL MISSOURI...

CITY           SKY/WX    TMP DP  RH WIND       PRES   REMARKS
ST LOUIS INTL  MOSUNNY   67  62  84 S7        30.05R
SPIRIT OF STL  SUNNY     63  62  97 VRB3      30.03S
ST CHARLES     SUNNY     62  60  93 E6        30.04R

$$
MOZ072>076-082>087-097>100-106>115-221500-
...SOUTH CENTRAL AND SOUTHEAST MISSOURI...

CITY           SKY/WX    TMP DP  RH WIND       PRES   REMARKS
CAPE GIRARDEAU SUNNY     69  64  84 S7        30.11R
FARMINGTON     SUNNY     65  65 100 S8        30.10R
POPLAR BLUFF   SUNNY     65  61  87 CALM      30.10S
WEST PLAINS    SUNNY     65  63  93 S7        30.10R

$$



USA.gov is the U.S. government's official web portal to all federal, state and local government web resources and services.